weather.gov     
National Weather Service

Weather Roundup
NWS Homepage
This page is being discontinued on March 12, 2014.
The same data is available at this site. Please update your bookmarks.
Thank you, and we apologize for the inconvenience.
Please send an email to SR-SRH.Webmaster@noaa.gov with any concerns.


Current Version
Previous Version:    01  02  03  04  05  06  07  08  09  10  11  12  13  14  15  16  17  18  19  20  21  22  23  24  25  26  27  28  29  30  
   31  32  33  34  35  36  37  38  39  40  41  42  43  44  45  46  47  48  49  50  51  52  53  54  55  56  57  58  59  60  
[Printable]
730
NZUS99 KSGF 251607
HRRSGF

HOURLY WEATHER
NATIONAL WEATHER SERVICE SPRINGFIELD MO
1100 AM CDT FRI JUL 25 2014

......SGF CWA......

CITY           SKY/WX    TMP DP  RH WIND       PRES   REMARKS
SPRINGFIELD    PTSUNNY   79  70  74 S16       30.01F
JOPLIN         MOSUNNY   84  70  62 SW18      29.98F
WEST PLAINS    MOSUNNY   76  58  53 S8        30.08S
ROLLA          MOSUNNY   80  60  50 S13G23    30.00F
OSAGE BEACH    SUNNY     81  66  61 S10G16    29.98F
BRANSON        MOSUNNY   84  68  58 S8        30.05S

......SURROUNDING SGF CWA......

CITY           SKY/WX    TMP DP  RH WIND       PRES   REMARKS
CHANUTE        SUNNY     85  71  63 S17G25    29.93F HX  90
PARSONS        SUNNY     85  72  65 S14G23    29.96S HX  91
COFFEYVILLE    SUNNY     85  72  65 S21G28    29.94F HX  91
EMPORIA        SUNNY     89  69  51 SW21      29.87S HX  93
GROVE OK       MOSUNNY   84  72  65 SW13      30.01S
ROGERS AR      MOSUNNY   82  68  62 SW15G21   30.05F
SILOAM SPRINGS PTSUNNY   81  66  61 S16       30.05F
HARRISON AR    SUNNY     79  69  71 S12       30.05F

......KANSAS AND MISSOURI......

CITY           SKY/WX    TMP DP  RH WIND       PRES   REMARKS
KANSAS CTY INT PTSUNNY   83  73  72 S16       29.85S
DOWNTOWN KC    MOSUNNY   86  71  60 S14G25    29.84F HX  91
COLUMBIA       MOSUNNY   78  63  59 SE16      29.97F
SEDALIA        PTSUNNY   81  69  67 S14G24    29.93F
ST JOSEPH      MOSUNNY   84  73  69 SW12G22   29.83R HX  90
ST LOUIS       CLOUDY    75  58  55 SE9       30.05F
SPIRIT OF STL  CLOUDY    73  59  61 SE6       30.03F
KIRKSVILLE     CLOUDY    66  61  84 SE18      29.96F
WICHITA        MOSUNNY   89  69  51 SW17G25   29.88F HX  93
TOPEKA         MOSUNNY   87  70  56 SW10      29.83F HX  92
OLATHE         MOSUNNY   84  71  65 S13G25    29.87F

......TENNESSEE......

CITY           SKY/WX    TMP DP  RH WIND       PRES   REMARKS
MEMPHIS        MOSUNNY   80  61  52 CALM      30.06F
NASHVILLE      PTSUNNY   80  58  46 CALM      30.08F

......ARKANSAS.......

CITY           SKY/WX    TMP DP  RH WIND       PRES   REMARKS
FAYETTEVILLE   MOSUNNY   79  70  74 S16       30.05S
FT SMITH       PTSUNNY   84  71  65 S5        30.02F
LITTLE ROCK    MOSUNNY   79  61  53 SE6       30.06F

......OKLAHOMA.......

CITY           SKY/WX    TMP DP  RH WIND       PRES   REMARKS
TULSA          MOSUNNY   84  72  67 S12G17    29.96F
PONCA CITY     SUNNY     88  69  53 S8G21     29.93F HX  92
MCALESTER      PTSUNNY   82  73  74 S8        30.03S
OKLAHOMA CITY  SUNNY     89  69  51 S13       29.98F HX  93

......IOWA............

CITY           SKY/WX    TMP DP  RH WIND       PRES   REMARKS
DES MOINES     CLOUDY    68  59  73 SE15      29.90F
QUAD CITIES    LGT RAIN  63  59  87 W10       30.08R

......ILLINOIS........

CITY           SKY/WX    TMP DP  RH WIND       PRES   REMARKS
QUINCY         LGT RAIN  62  59  90 SE7       30.01F FOG
CHICAGO        CLOUDY    70  54  56 S13       30.01F





U.S. Dept. of Commerce
NOAA National Weather Service
1325 East West Highway
Silver Spring, MD 20910
E-mail: w-nws.webmaster@noaa.gov
Page last modified: May 16, 2007
NATIONAL WEATHER SERVICE: for Safety, for Work, for Fun - FOR LIFE